KPAWILLO7 Weather Reports


Display with metric or nautical units.
time (UTC)temp
F
wind
direction
speed
MPH
gust
MPH
rain 1hr
in
rain 24hr
in
rain mn
in
humidity
%
barometer
mb
20260510174504 75 2 5.0 5.0 0.00 0.08 0.00 51 1013.7
20260510173504 75 2 4.0 8.0 0.00 0.08 0.00 50 1013.8
20260510173004 75 2 5.0 7.0 0.00 0.08 0.00 52 1013.8
20260510172503 76 1 5.0 7.0 0.00 0.08 0.00 52 1013.8
20260510172004 75 2 5.0 6.0 0.00 0.08 0.00 51 1013.8
20260510171003 75 1 4.0 7.0 0.00 0.08 0.00 52 1013.8
20260510170503 74 1 4.0 5.0 0.00 0.08 0.00 51 1013.8
20260510170003 74 2 5.0 6.0 0.00 0.08 0.00 51 1013.8
20260510165504 74 1 5.0 7.0 0.00 0.08 0.00 53 1013.8
20260510165004 74 1 5.0 9.0 0.00 0.08 0.00 52 1013.8
20260510163503 72 2 4.0 7.0 0.00 0.08 0.00 56 1013.8
20260510163003 72 1 4.0 7.0 0.00 0.08 0.00 57 1013.9
20260510162504 73 1 3.0 7.0 0.00 0.08 0.00 58 1014.0
20260510161503 71 2 4.0 6.0 0.00 0.08 0.00 59 1013.9
20260510161004 70 1 4.0 4.0 0.00 0.08 0.00 61 1013.8
20260510160503 70 2 5.0 4.0 0.00 0.08 0.00 61 1013.9
20260510160003 70 1 5.0 10.0 0.00 0.08 0.00 61 1013.8
20260510155504 70 1 5.0 10.0 0.00 0.08 0.00 61 1013.8
20260510155003 70 1 4.0 7.0 0.00 0.08 0.00 62 1014.0
20260510154503 69 1 3.0 7.0 0.00 0.08 0.00 62 1014.0
20260510153504 68 1 3.0 4.0 0.00 0.08 0.00 66 1014.1
20260510153004 68 1 3.0 4.0 0.00 0.08 0.00 66 1014.1
20260510152503 68 1 2.0 4.0 0.00 0.08 0.00 67 1014.1
20260510151504 67 2 4.0 7.0 0.00 0.08 0.00 67 1014.0
20260510151004 67 1 3.0 7.0 0.00 0.08 0.00 68 1014.1
20260510150503 66 1 3.0 4.0 0.00 0.08 0.00 70 1014.2
20260510150004 66 2 4.0 9.0 0.00 0.08 0.00 73 1014.2
20260510145003 65 2 2.0 5.0 0.00 0.08 0.00 76 1014.2
20260510144503 64 1 2.0 5.0 0.00 0.08 0.00 77 1014.2
20260510144004 64 1 1.0 3.0 0.00 0.08 0.00 79 1014.2
20260510143503 63 1 1.0 3.0 0.00 0.08 0.00 79 1014.2
20260510143004 63 1 1.0 3.0 0.00 0.08 0.00 82 1014.2
20260510142504 62 1 1.0 3.0 0.00 0.08 0.00 84 1014.1
20260510142003 62 2 1.0 2.0 0.00 0.08 0.00 86 1014.1
20260510141504 61 1 1.0 2.0 0.00 0.08 0.00 88 1014.2
20260510140503 60 1 2.0 5.0 0.00 0.08 0.00 90 1014.1
20260510140003 59 1 1.0 5.0 0.00 0.08 0.00 92 1014.1
20260510135504 58 1 1.0 2.0 0.00 0.08 0.00 93 1014.0
20260510135003 57 1 1.0 2.0 0.00 0.08 0.00 93 1014.1
20260510134503 57 1 1.0 2.0 0.00 0.08 0.00 93 1014.0
20260510134003 56 2 1.0 2.0 0.00 0.08 0.00 94 1014.0
20260510133504 56 1 1.0 2.0 0.00 0.08 0.00 94 1014.0
20260510133003 56 1 0.0 2.0 0.00 0.08 0.00 94 1013.9
20260510132503 55 0 0.0 0.0 0.00 0.08 0.00 94 1013.9
20260510132003 55 1 0.0 1.0 0.00 0.08 0.00 95 1013.9
20260510131504 54 1 1.0 2.0 0.00 0.08 0.00 94 1013.9
20260510130503 54 0 0.0 0.0 0.00 0.08 0.00 95 1014.2
20260510130004 53 0 0.0 0.0 0.00 0.08 0.00 95 1014.1
20260510125503 53 0 0.0 0.0 0.00 0.08 0.00 94 1014.2
20260510125003 53 0 0.0 0.0 0.00 0.08 0.00 94 1014.1
20260510124503 53 0 0.0 0.0 0.00 0.08 0.00 95 1014.1
20260510124004 52 0 0.0 0.0 0.00 0.08 0.00 94 1013.9
20260510123503 52 0 0.0 0.0 0.00 0.08 0.00 95 1013.9
20260510123004 52 1 0.0 1.0 0.00 0.08 0.00 95 1013.8
20260510121003 52 1 3.0 5.0 0.00 0.08 0.00 95 1013.5
20260510120503 52 1 1.0 3.0 0.00 0.08 0.00 94 1013.3
20260510120003 51 1 0.0 3.0 0.00 0.08 0.00 94 1013.5
20260510115504 51 1 1.0 3.0 0.00 0.08 0.00 95 1013.3
20260510115003 51 1 1.0 3.0 0.00 0.08 0.00 94 1013.4
20260510114004 51 1 1.0 3.0 0.00 0.08 0.00 95 1013.4
20260510113504 51 1 1.0 3.0 0.00 0.08 0.00 94 1013.1
20260510113003 51 1 1.0 3.0 0.00 0.08 0.00 94 1013.1
20260510112503 51 2 1.0 3.0 0.00 0.08 0.00 94 1013.2
20260510112004 50 1 1.0 3.0 0.00 0.08 0.00 94 1013.3
20260510111503 50 1 1.0 3.0 0.00 0.08 0.00 94 1013.3
20260510111003 50 1 1.0 2.0 0.00 0.08 0.00 94 1013.2
20260510110503 50 1 1.0 1.0 0.00 0.08 0.00 94 1013.2
20260510110004 50 0 0.0 0.0 0.00 0.08 0.00 94 1013.1
20260510105503 50 1 0.0 1.0 0.00 0.08 0.00 94 1012.9
20260510104504 50 1 2.0 3.0 0.00 0.08 0.00 94 1012.6
20260510104003 50 1 1.0 3.0 0.00 0.08 0.00 94 1012.6
20260510103503 50 1 1.0 2.0 0.00 0.08 0.00 94 1012.6
20260510103004 50 1 1.0 2.0 0.00 0.08 0.00 94 1012.7
20260510102503 50 1 0.0 1.0 0.00 0.08 0.00 94 1012.6
20260510101503 50 2 1.0 3.0 0.00 0.08 0.00 94 1012.6
20260510101003 50 1 2.0 4.0 0.00 0.08 0.00 94 1012.7
20260510100504 50 1 1.0 4.0 0.00 0.08 0.00 94 1012.7
20260510100004 50 1 1.0 2.0 0.00 0.08 0.00 94 1012.4
20260510095503 50 2 1.0 2.0 0.00 0.08 0.00 94 1012.2
20260510095003 50 2 1.0 2.0 0.00 0.08 0.00 94 1012.4
20260510094003 50 1 1.0 4.0 0.00 0.08 0.00 94 1012.4
20260510093503 50 1 1.0 4.0 0.00 0.08 0.00 94 1012.3
20260510093003 50 1 0.0 3.0 0.00 0.08 0.00 94 1012.3
20260510092504 50 1 0.0 3.0 0.00 0.08 0.00 94 1012.3
20260510091003 50 1 2.0 5.0 0.00 0.08 0.00 94 1012.4
20260510090505 50 1 2.0 5.0 0.00 0.08 0.00 94 1012.3
20260510090004 50 2 2.0 5.0 0.00 0.08 0.00 94 1012.4
20260510085503 49 1 3.0 5.0 0.00 0.08 0.00 94 1012.6
20260510085003 49 2 3.0 8.0 0.00 0.08 0.00 94 1012.0
20260510084004 49 1 4.0 7.0 0.00 0.08 0.00 94 1012.5
20260510083503 48 1 2.0 7.0 0.00 0.08 0.00 94 1011.9
20260510083003 48 2 1.0 7.0 0.00 0.08 0.00 93 1012.3
20260510082505 48 0 0.0 0.0 0.00 0.08 0.00 93 1011.7
20260510082003 48 0 0.0 0.0 0.00 0.08 0.00 94 1011.8
20260510081005 48 1 0.0 2.0 0.00 0.08 0.00 94 1011.8
20260510080503 48 1 0.0 2.0 0.00 0.08 0.00 93 1011.8
20260510080003 48 0 0.0 0.0 0.00 0.08 0.00 94 1011.7
20260510075503 48 0 0.0 0.0 0.00 0.08 0.00 94 1011.5
20260510075004 49 0 0.0 0.0 0.00 0.08 0.00 93 1011.5
20260510074504 49 1 0.0 1.0 0.00 0.08 0.00 93 1011.7
20260510073504 49 1 0.0 5.0 0.00 0.08 0.00 93 1011.7
20260510073004 49 2 1.0 5.0 0.00 0.08 0.00 93 1011.6
20260510072503 49 1 1.0 2.0 0.00 0.08 0.00 93 1011.7
20260510072003 48 1 1.0 4.0 0.00 0.08 0.00 93 1011.6
20260510071504 48 1 1.0 4.0 0.00 0.08 0.00 93 1011.6
20260510071003 49 1 1.0 2.0 0.00 0.08 0.00 93 1011.6
20260510070503 49 1 1.0 2.0 0.00 0.08 0.00 93 1011.4
20260510070004 49 1 0.0 2.0 0.00 0.08 0.00 93 1011.3
20260510065003 50 0 0.0 0.0 0.00 0.08 0.00 93 1011.1
20260510064503 50 0 0.0 0.0 0.00 0.08 0.00 93 1011.1
20260510064004 49 0 0.0 0.0 0.00 0.08 0.00 93 1011.1
20260510063504 50 0 0.0 0.0 0.00 0.08 0.00 93 1011.1
20260510063003 50 0 0.0 0.0 0.00 0.08 0.00 93 1011.1
20260510062003 50 0 0.0 0.0 0.00 0.08 0.00 93 1011.1
20260510061504 51 0 0.0 0.0 0.00 0.08 0.00 93 1011.1
20260510060503 51 0 0.0 0.0 0.00 0.08 0.00 93 1011.2
20260510055504 51 0 0.0 0.0 0.00 0.08 0.00 93 1011.3
20260510055003 51 0 0.0 0.0 0.00 0.08 0.00 93 1011.3
20260510054503 51 0 0.0 0.0 0.00 0.08 0.00 93 1011.4
20260510054004 51 0 0.0 0.0 0.00 0.08 0.00 93 1011.5
20260510053504 51 0 0.0 0.0 0.00 0.08 0.00 93 1011.5
20260510053003 51 0 0.0 0.0 0.00 0.08 0.00 93 1011.5
20260510052503 51 0 0.0 0.0 0.00 0.08 0.00 93 1011.6
20260510052004 51 0 0.0 0.0 0.00 0.08 0.00 93 1011.6
20260510050004 52 0 0.0 0.0 0.00 0.08 0.00 93 1011.7
20260510045503 52 0 0.0 0.0 0.00 0.08 0.00 93 1011.8
20260510043504 51 0 0.0 0.0 0.00 0.08 0.00 93 1011.8
20260510043004 51 0 0.0 0.0 0.00 0.08 0.00 93 1011.9
20260510042503 51 0 0.0 0.0 0.00 0.08 0.00 93 1011.9
20260510042003 51 0 0.0 0.0 0.00 0.08 0.00 92 1011.9
20260510041504 52 0 0.0 0.0 0.00 0.08 0.00 92 1011.9
20260510041003 52 0 0.0 0.0 0.00 0.08 0.00 93 1012.0
20260510040503 52 0 0.0 0.0 0.00 0.08 0.00 93 1012.0
20260510040004 52 0 0.0 0.0 0.00 0.08 0.00 93 1012.0
20260510035503 52 0 0.0 0.0 0.00 0.08 0.08 92 1012.0
20260510035004 52 0 0.0 0.0 0.00 0.08 0.08 92 1011.9
20260510034503 52 0 0.0 0.0 0.00 0.08 0.08 93 1011.7
20260510033503 52 1 1.0 2.0 0.00 0.08 0.08 93 1011.6
20260510033004 52 1 1.0 2.0 0.00 0.08 0.08 93 1011.6
20260510032503 52 1 1.0 2.0 0.00 0.08 0.08 93 1011.6
20260510032003 52 1 2.0 2.0 0.00 0.08 0.08 92 1011.5
20260510031503 53 1 2.0 2.0 0.00 0.08 0.08 92 1011.4
20260510031004 53 1 1.0 2.0 0.00 0.08 0.08 92 1011.5
20260510030503 53 1 1.0 2.0 0.00 0.08 0.08 92 1011.5
20260510030003 53 1 2.0 2.0 0.00 0.08 0.08 92 1011.4
20260510025504 53 1 2.0 2.0 0.00 0.08 0.08 92 1011.5
20260510025004 53 1 2.0 2.0 0.00 0.08 0.08 92 1011.4
20260510024504 53 1 2.0 2.0 0.00 0.08 0.08 92 1011.5
20260510024003 53 1 1.0 2.0 0.00 0.08 0.08 92 1011.5
20260510023504 53 1 1.0 2.0 0.00 0.08 0.08 92 1011.4
20260510022503 53 1 0.0 1.0 0.00 0.08 0.08 92 1011.4
20260510021503 53 1 0.0 1.0 0.00 0.08 0.08 92 1011.4
20260510021004 53 1 1.0 2.0 0.00 0.08 0.08 92 1011.4
20260510020503 53 1 1.0 2.0 0.00 0.08 0.08 92 1011.3
20260510020003 53 1 1.0 3.0 0.00 0.08 0.08 92 1011.3
20260510015504 53 1 1.0 3.0 0.00 0.08 0.08 92 1011.3
20260510015004 54 1 2.0 4.0 0.00 0.08 0.08 92 1011.3
20260510014503 54 1 2.0 4.0 0.00 0.08 0.08 92 1011.2
20260510013504 54 1 2.0 3.0 0.00 0.08 0.08 92 1011.3
20260510013004 54 1 2.0 3.0 0.00 0.08 0.08 92 1011.2
20260510012504 54 1 2.0 3.0 0.00 0.08 0.08 92 1011.2
20260510012003 54 1 2.0 3.0 0.00 0.08 0.08 92 1011.2
20260510011504 54 1 2.0 2.0 0.00 0.08 0.08 91 1011.3
20260510011004 54 1 2.0 2.0 0.00 0.08 0.08 91 1011.2
20260510010503 54 1 2.0 2.0 0.00 0.08 0.08 91 1011.1
20260510010003 54 1 2.0 2.0 0.00 0.08 0.08 91 1011.1
20260510004503 54 1 2.0 3.0 0.00 0.08 0.08 91 1010.9
20260510004003 54 1 2.0 2.0 0.00 0.08 0.08 91 1010.9
20260510003505 54 1 1.0 2.0 0.00 0.08 0.08 91 1010.8
20260510003004 54 0 0.0 0.0 0.00 0.08 0.08 91 1011.0
20260510002003 54 1 1.0 1.0 0.00 0.08 0.08 90 1010.8
20260510001504 54 1 0.0 1.0 0.00 0.08 0.08 90 1010.8
20260510001004 55 0 0.0 0.0 0.00 0.08 0.08 90 1010.9
20260510000503 55 0 0.0 0.0 0.00 0.08 0.08 90 1010.9
20260510000003 55 0 0.0 0.0 0.00 0.08 0.08 90 1011.0
20260509235504 55 0 0.0 0.0 0.00 0.08 0.08 90 1010.9
20260509235004 55 0 0.0 0.0 0.00 0.08 0.08 90 1010.9
20260509234503 55 0 0.0 0.0 0.00 0.08 0.08 90 1010.9
20260509233504 56 0 0.0 0.0 0.00 0.08 0.08 90 1010.9
20260509233004 56 0 0.0 0.0 0.00 0.08 0.08 90 1010.8
20260509232503 56 0 0.0 0.0 0.00 0.08 0.08 90 1010.8
20260509232003 56 1 1.0 2.0 0.00 0.08 0.08 90 1010.7
20260509231504 56 1 2.0 2.0 0.00 0.08 0.08 90 1010.7
20260509231003 56 1 2.0 3.0 0.00 0.08 0.08 90 1010.7
20260509230003 56 1 1.0 3.0 0.00 0.08 0.08 91 1010.7
20260509224503 56 2 3.0 6.0 0.00 0.08 0.08 91 1010.6
20260509224003 56 2 3.0 6.0 0.00 0.08 0.08 91 1010.6
20260509223503 56 1 3.0 6.0 0.00 0.08 0.08 90 1010.7
20260509223004 56 1 3.0 4.0 0.00 0.08 0.08 90 1010.7
20260509222503 56 2 3.0 5.0 0.00 0.08 0.08 90 1010.7
20260509222004 56 1 3.0 5.0 0.00 0.08 0.08 90 1010.6
20260509221504 56 2 2.0 4.0 0.01 0.08 0.08 90 1010.7
20260509221003 56 1 2.0 3.0 0.01 0.08 0.08 90 1010.9
20260509220503 56 1 3.0 3.0 0.02 0.08 0.08 90 1010.9
20260509220004 56 2 4.0 6.0 0.05 0.08 0.08 90 1010.8
20260509215504 55 2 4.0 6.0 0.08 0.08 0.08 89 1010.8
20260509214503 56 2 3.0 4.0 0.08 0.08 0.08 89 1010.9
20260509214004 56 1 2.0 4.0 0.08 0.08 0.08 88 1011.1
20260509213503 56 2 1.0 2.0 0.08 0.08 0.08 88 1011.2
20260509213003 56 1 2.0 4.0 0.08 0.08 0.08 88 1011.3
20260509212503 56 1 2.0 4.0 0.08 0.08 0.08 88 1011.2
20260509212004 56 2 1.0 4.0 0.07 0.07 0.07 87 1011.2
20260509211503 56 1 0.0 1.0 0.07 0.07 0.07 86 1011.1
20260509211003 56 1 1.0 3.0 0.07 0.07 0.07 85 1011.0
20260509210503 56 1 2.0 3.0 0.05 0.05 0.05 85 1011.0
20260509210004 56 1 3.0 3.0 0.02 0.02 0.02 83 1010.9
20260509205503 57 1 2.0 3.0 0.00 0.00 0.00 82 1011.3
20260509205003 57 1 2.0 2.0 0.00 0.00 0.00 82 1011.0
20260509204504 57 1 2.0 4.0 0.00 0.00 0.00 82 1010.6
20260509204003 57 1 2.0 4.0 0.00 0.00 0.00 81 1010.8
20260509203503 57 1 3.0 5.0 0.00 0.00 0.00 81 1010.8
20260509203004 57 1 4.0 5.0 0.00 0.00 0.00 81 1010.9
20260509202003 57 2 3.0 7.0 0.00 0.00 0.00 83 1010.7
20260509201504 57 2 4.0 7.0 0.00 0.00 0.00 83 1010.7
20260509200503 57 2 5.0 11.0 0.00 0.00 0.00 82 1010.8
20260509200003 57 1 6.0 11.0 0.00 0.00 0.00 81 1011.0
20260509195504 57 2 6.0 11.0 0.00 0.00 0.00 80 1010.9
20260509195003 57 1 5.0 11.0 0.00 0.00 0.00 81 1010.8
20260509194503 57 2 4.0 11.0 0.00 0.00 0.00 82 1010.9
20260509194003 57 1 4.0 7.0 0.00 0.00 0.00 82 1011.0
20260509193504 57 2 4.0 7.0 0.00 0.00 0.00 83 1011.2
20260509193003 57 2 3.0 5.0 0.00 0.00 0.00 83 1011.4
20260509192003 57 2 4.0 4.0 0.00 0.00 0.00 83 1011.7
20260509191504 57 1 5.0 6.0 0.00 0.00 0.00 81 1011.9
20260509191004 57 2 4.0 6.0 0.00 0.00 0.00 81 1011.7
20260509190003 57 2 5.0 7.0 0.00 0.00 0.00 79 1011.6
20260509185504 57 1 5.0 6.0 0.00 0.00 0.00 79 1011.6
20260509185004 58 1 4.0 7.0 0.00 0.00 0.00 79 1011.7
20260509184503 58 2 4.0 7.0 0.00 0.00 0.00 78 1011.8
20260509184003 58 1 5.0 10.0 0.00 0.00 0.00 77 1011.9
20260509183504 58 1 5.0 10.0 0.00 0.00 0.00 79 1011.8
20260509183004 58 1 5.0 10.0 0.00 0.00 0.00 78 1011.8
20260509182003 59 1 5.0 11.0 0.00 0.00 0.00 75 1011.9
20260509181504 60 1 5.0 11.0 0.00 0.00 0.00 74 1011.8
20260509181004 60 1 4.0 6.0 0.00 0.00 0.00 73 1011.8
20260509180503 60 1 3.0 6.0 0.00 0.00 0.00 73 1011.8
20260509180003 60 1 3.0 6.0 0.00 0.00 0.00 72 1011.8
20260509175504 60 1 2.0 3.0 0.00 0.00 0.00 73 1011.8
20260509175004 60 1 3.0 5.0 0.00 0.00 0.00 72 1011.8